This is the latest recevied weather packets stored in our database for station/object IT9CNT. If no packets are shown the sender has not sent any weather packets the latest 10 day(s).
| Time | Temp. | Humidity | Pressure | Rain* | Wind** | Luminosity | Snow |
|---|---|---|---|---|---|---|---|
| 1787424303 | 27.78° C | 90% | 1012.7 hPa | 8.64 mm | - | - | - |
| 1787424243 | 27.78° C | 91% | 1012.6 hPa | 8.89 mm | - | - | - |
| 1787424183 | 27.78° C | 91% | 1012.9 hPa | 7.87 mm | - | - | - |
| 1787424123 | 27.78° C | 91% | 1012.7 hPa | 7.87 mm | - | - | - |
| 1787424063 | 27.78° C | 91% | 1012.7 hPa | 8.38 mm | - | - | - |
| 1787424003 | 27.78° C | 91% | 1012.7 hPa | 8.38 mm | - | - | - |
| 1787423943 | 27.78° C | 90% | 1012.8 hPa | 7.11 mm | - | - | - |
| 1787423883 | 27.78° C | 90% | 1012.6 hPa | 7.11 mm | - | - | - |
| 1787423823 | 27.78° C | 90% | 1012.9 hPa | 7.11 mm | - | - | - |
| 1787423763 | 27.78° C | 90% | 1012.8 hPa | 7.11 mm | - | - | - |
| 1787423704 | 27.78° C | 90% | 1012.7 hPa | 6.86 mm | - | - | - |
| 1787423643 | 27.78° C | 90% | 1012.9 hPa | 6.6 mm | - | - | - |
| 1787423583 | 27.78° C | 90% | 1012.7 hPa | 6.35 mm | - | - | - |
| 1787423523 | 27.78° C | 90% | 1012.6 hPa | 5.59 mm | - | - | - |
| 1787423463 | 27.78° C | 90% | 1012.8 hPa | 5.33 mm | - | - | - |
| 1787423403 | 27.78° C | 90% | 1012.7 hPa | 5.33 mm | - | - | - |
| 1787423343 | 27.78° C | 90% | 1012.7 hPa | 4.32 mm | - | - | - |
| 1787423283 | 27.78° C | 90% | 1012.7 hPa | 4.32 mm | - | - | - |
| 1787423223 | 27.78° C | 90% | 1012.7 hPa | 4.32 mm | - | - | - |
| 1787423163 | 27.78° C | 90% | 1012.8 hPa | 3.81 mm | - | - | - |
| 1787423103 | 27.78° C | 90% | 1012.9 hPa | 3.81 mm | - | - | - |
| 1787423043 | 27.78° C | 90% | 1012.6 hPa | 3.81 mm | - | - | - |
| 1787422983 | 27.78° C | 90% | 1012.7 hPa | 3.81 mm | - | - | - |
| 1787422923 | 27.78° C | 90% | 1012.8 hPa | 3.81 mm | - | - | - |
| 1787422863 | 27.78° C | 90% | 1012.6 hPa | 3.81 mm | - | - | - |
* Rain latest hour (hover to see other rain measurements)
** Current wind speed in m/s (hover to see current wind gust speed)